Change the Weather History Date:

Sunday, September 29, 2013

  Actual Average Record
Temperature  
Mean Temperature 56 °F -  
Max Temperature 73 °F 61 °F 80 °F (2012)
Min Temperature 39 °F 39 °F 22 °F (1939)
Degree Days  
Heating Degree Days 9    
Growing Degree Days 6 (Base 50)    
Moisture  
Dew Point 43 °F    
Average Humidity 65    
Maximum Humidity 100    
Minimum Humidity 36    
Precipitation  
Precipitation 0.00 in - - ()
Sea Level Pressure  
Sea Level Pressure 29.79 in    
Wind  
Wind Speed 7 mph (South)    
Max Wind Speed 20 mph    
Max Gust Speed 24 mph    
Visibility 10 miles    
Events      
Averages and records for this station are not official NWS values.
T = Trace of Precipitation, MM = Missing Value Source: NWS Daily Summary

Daily Weather History Graph

Daily Weather History Graph

Search for Another Location

Airport or City:

Trip Planner

Search our weather history database for the weather conditions in past years. The results will help you decide how hot, cold, wet, or windy it might be!

Date:

Astronomy

Sep. 29, 2013 Rise Set
Actual Time 7:17 AM CDT 7:04 PM CDT
Civil Twilight 6:47 AM CDT 7:34 PM CDT
Nautical Twilight 6:12 AM CDT 8:09 PM CDT
Astronomical Twilight 5:36 AM CDT 8:44 PM CDT
Moon 1:43 AM CDT (9/29) 4:14 PM CDT (9/29)
Length of Visible Light 12h 46m
Length of Day
11h 46m
Waning Crescent, 27% of the Moon is Illuminated
Sep 29
Waning Crescent
Oct 4
New
Oct 11
First Quarter
Oct 18
Full
Oct 26
Last Quarter

Hourly Weather History & Observations

Time (CDT) Temp. Windchill Dew Point Humidity Pressure Visibility Wind Dir Wind Speed Gust Speed Precip Events Conditions
12:15 AM 44.6 °F 40.7 °F 42.8 °F 93% 29.86 in 10.0 mi South 6.9 mph - N/A   Clear
12:35 AM 44.6 °F 40.7 °F 41.0 °F 87% 29.86 in 10.0 mi SSW 6.9 mph - N/A   Clear
12:52 AM 44.6 °F 41.4 °F 41.0 °F 87% 29.86 in 10.0 mi SSW 5.8 mph - N/A   Clear
1:14 AM 44.6 °F 42.2 °F 41.0 °F 87% 29.86 in 10.0 mi SSW 4.6 mph - N/A   Clear
1:34 AM 44.6 °F 41.4 °F 41.0 °F 87% 29.87 in 10.0 mi SSW 5.8 mph - N/A   Clear
1:53 AM 42.8 °F 40.1 °F 39.2 °F 87% 29.86 in 10.0 mi SSW 4.6 mph - N/A   Clear
2:15 AM 42.8 °F 40.1 °F 39.2 °F 87% 29.87 in 10.0 mi SSW 4.6 mph - N/A   Clear
2:35 AM 42.8 °F 40.1 °F 39.2 °F 87% 29.86 in 10.0 mi SSW 4.6 mph - N/A   Clear
2:52 AM 42.8 °F 40.1 °F 39.2 °F 87% 29.86 in 10.0 mi SSW 4.6 mph - N/A   Clear
3:14 AM 42.8 °F 40.1 °F 39.2 °F 87% 29.86 in 10.0 mi South 4.6 mph - N/A   Clear
3:35 AM 42.8 °F 40.1 °F 39.2 °F 87% 29.86 in 10.0 mi South 4.6 mph - N/A   Clear
3:53 AM 41.0 °F 39.0 °F 39.2 °F 93% 29.86 in 10.0 mi South 3.5 mph - N/A   Clear
4:14 AM 41.0 °F 39.0 °F 39.2 °F 93% 29.86 in 10.0 mi SSW 3.5 mph - N/A   Clear
4:35 AM 42.8 °F 41.1 °F 39.2 °F 87% 29.87 in 10.0 mi SSW 3.5 mph - N/A   Clear
4:53 AM 41.0 °F 39.0 °F 39.2 °F 93% 29.87 in 10.0 mi SSW 3.5 mph - N/A   Clear
5:14 AM 41.0 °F - 39.2 °F 93% 29.87 in 10.0 mi Calm Calm - N/A   Clear
5:35 AM 42.8 °F - 39.2 °F 87% 29.87 in 10.0 mi Calm Calm - N/A   Clear
5:53 AM 41.0 °F - 39.2 °F 93% 29.86 in 10.0 mi Calm Calm - N/A   Clear
6:15 AM 39.2 °F 35.9 °F 37.4 °F 93% 29.87 in 10.0 mi South 4.6 mph - N/A   Clear
6:35 AM 39.2 °F 37.0 °F 39.2 °F 100% 29.87 in 10.0 mi South 3.5 mph - N/A   Clear
6:53 AM 39.2 °F 37.0 °F 39.2 °F 100% 29.87 in 10.0 mi South 3.5 mph - N/A   Clear
7:15 AM 41.0 °F - 39.2 °F 93% 29.87 in 10.0 mi Calm Calm - N/A   Clear
7:34 AM 41.0 °F 39.0 °F 39.2 °F 93% 29.87 in 10.0 mi South 3.5 mph - N/A   Clear
7:53 AM 41.0 °F - 39.2 °F 93% 29.87 in 10.0 mi Calm Calm - N/A   Clear
8:14 AM 44.6 °F 43.1 °F 41.0 °F 87% 29.87 in 10.0 mi South 3.5 mph - N/A   Clear
8:35 AM 46.4 °F - 42.8 °F 87% 29.87 in 10.0 mi Calm Calm - N/A   Clear
8:52 AM 48.2 °F - 44.6 °F 87% 29.87 in 10.0 mi South 5.8 mph - N/A   Clear
9:15 AM 51.8 °F - 44.6 °F 76% 29.86 in 10.0 mi South 5.8 mph - N/A   Clear
9:35 AM 55.4 °F - 44.6 °F 67% 29.86 in 10.0 mi South 5.8 mph - N/A   Clear
9:52 AM 57.2 °F - 46.4 °F 67% 29.86 in 10.0 mi South 4.6 mph - N/A   Clear
10:14 AM 60.8 °F - 46.4 °F 59% 29.86 in 10.0 mi SSW 6.9 mph - N/A   Clear
10:34 AM 62.6 °F - 46.4 °F 55% 29.85 in 10.0 mi SSW 8.1 mph - N/A   Clear
10:53 AM 64.4 °F - 46.4 °F 52% 29.85 in 10.0 mi SSW 5.8 mph - N/A   Clear
11:15 AM 66.2 °F - 46.4 °F 49% 29.84 in 10.0 mi South 10.4 mph - N/A   Clear
11:35 AM 66.2 °F - 46.4 °F 49% 29.84 in 10.0 mi South 11.5 mph - N/A   Clear
11:52 AM 68.0 °F - 44.6 °F 43% 29.84 in 10.0 mi South 13.8 mph 18.4 mph N/A   Clear
12:15 PM 69.8 °F - 42.8 °F 38% 29.83 in 10.0 mi SSW 12.7 mph 19.6 mph N/A   Clear
12:34 PM 69.8 °F - 44.6 °F 40% 29.82 in 10.0 mi South 16.1 mph - N/A   Clear
12:53 PM 71.6 °F - 44.6 °F 38% 29.82 in 10.0 mi SSW 12.7 mph - N/A   Clear
1:15 PM 71.6 °F - 46.4 °F 41% 29.81 in 10.0 mi South 11.5 mph 18.4 mph N/A   Clear
1:34 PM 71.6 °F - 44.6 °F 38% 29.79 in 10.0 mi South 12.7 mph 17.3 mph N/A   Clear
1:52 PM 71.6 °F - 44.6 °F 38% 29.78 in 10.0 mi South 16.1 mph - N/A   Clear
2:14 PM 71.6 °F - 44.6 °F 38% 29.77 in 10.0 mi South 11.5 mph 23.0 mph N/A   Clear
2:34 PM 73.4 °F - 44.6 °F 36% 29.77 in 10.0 mi South 17.3 mph 23.0 mph N/A   Clear
2:53 PM 71.6 °F - 46.4 °F 41% 29.77 in 10.0 mi SSE 15.0 mph 21.9 mph N/A   Clear
3:15 PM 73.4 °F - 44.6 °F 36% 29.76 in 10.0 mi South 17.3 mph 20.7 mph N/A   Clear
3:35 PM 71.6 °F - 44.6 °F 38% 29.75 in 10.0 mi South 16.1 mph - N/A   Clear
3:52 PM 73.4 °F - 44.6 °F 36% 29.74 in 10.0 mi South 19.6 mph 24.2 mph N/A   Clear
4:14 PM 71.6 °F - 44.6 °F 38% 29.73 in 10.0 mi South 15.0 mph - N/A   Clear
4:34 PM 71.6 °F - 44.6 °F 38% 29.72 in 10.0 mi South 18.4 mph 24.2 mph N/A   Clear
4:53 PM 71.6 °F - 44.6 °F 38% 29.72 in 10.0 mi South 17.3 mph 24.2 mph N/A   Clear
5:15 PM 71.6 °F - 44.6 °F 38% 29.72 in 10.0 mi South 13.8 mph 20.7 mph N/A   Clear
5:34 PM 71.6 °F - 44.6 °F 38% 29.72 in 10.0 mi SSE 12.7 mph 19.6 mph N/A   Clear
5:53 PM 71.6 °F - 44.6 °F 38% 29.71 in 10.0 mi SSE 10.4 mph - N/A   Clear
6:15 PM 69.8 °F - 46.4 °F 43% 29.71 in 10.0 mi SSE 8.1 mph - N/A   Clear
6:34 PM 68.0 °F - 46.4 °F 46% 29.71 in 10.0 mi SSE 6.9 mph - N/A   Clear
6:52 PM 64.4 °F - 46.4 °F 52% 29.71 in 10.0 mi SSE 5.8 mph - N/A   Clear
7:15 PM 64.4 °F - 46.4 °F 52% 29.71 in 10.0 mi SE 4.6 mph - N/A   Clear
7:34 PM 60.8 °F - 46.4 °F 59% 29.71 in 10.0 mi SE 4.6 mph - N/A   Clear
7:53 PM 59.0 °F - 46.4 °F 63% 29.71 in 10.0 mi SE 4.6 mph - N/A   Clear
8:15 PM 57.2 °F - 46.4 °F 67% 29.71 in 10.0 mi ESE 4.6 mph - N/A   Clear
8:35 PM 57.2 °F - 46.4 °F 67% 29.70 in 10.0 mi ESE 6.9 mph - N/A   Clear
8:52 PM 57.2 °F - 46.4 °F 67% 29.69 in 10.0 mi SE 5.8 mph - N/A   Clear
9:14 PM 57.2 °F - 46.4 °F 67% 29.68 in 10.0 mi SE 6.9 mph - N/A   Clear
9:34 PM 59.0 °F - 46.4 °F 63% 29.68 in 10.0 mi SE 8.1 mph - N/A   Clear
9:52 PM 62.6 °F - 46.4 °F 55% 29.67 in 10.0 mi SSE 10.4 mph - N/A   Clear
10:15 PM 60.8 °F - 46.4 °F 59% 29.66 in 10.0 mi SSE 10.4 mph - N/A   Clear
10:35 PM 60.8 °F - 46.4 °F 59% 29.65 in 10.0 mi SSE 9.2 mph - N/A   Clear
10:53 PM 60.8 °F - 46.4 °F 59% 29.65 in 10.0 mi SSE 11.5 mph - N/A   Clear
11:14 PM 59.0 °F - 46.4 °F 63% 29.64 in 10.0 mi SSE 9.2 mph - N/A   Clear
11:35 PM 60.8 °F - 46.4 °F 59% 29.63 in 10.0 mi SSE 11.5 mph 17.3 mph N/A   Clear
11:53 PM 60.8 °F - 46.4 °F 59% 29.63 in 10.0 mi South 13.8 mph 18.4 mph N/A   Clear